weather.gov     
National Weather Service

Terminal Aerodrome Forecast
NWS Homepage
This page is being discontinued on March 12, 2014.
The same data is available at this site. Please update your bookmarks.
Thank you, and we apologize for the inconvenience.
Please send an email to SR-SRH.Webmaster@noaa.gov with any concerns.


Current Version
Previous Version:    01  02  03  04  05  06  07  08  09  10  11  12  13  14  15  16  17  18  19  20  21  22  23  24  25  26  27  28  29  30  
   31  
[Printable]
336
FTUS42 TJSJ 222300 RRA
TAFJMZ
TAF
TJMZ 222340Z 2300/2324 07006KT P6SM VCSH SCT040
     FM231530 07010KT P6SM VCTS SCT022CB BKN040 PROB30 2317/2321
      VRB10G20KT 4SM TSRA BKN030CB
     FM232300 07006KT P6SM SCT030 BKN060
      AMD NOT SKED TIL 231200=


U.S. Dept. of Commerce
NOAA National Weather Service
1325 East West Highway
Silver Spring, MD 20910
E-mail: w-nws.webmaster@noaa.gov
Page last modified: May 16, 2007
NATIONAL WEATHER SERVICE: for Safety, for Work, for Fun - FOR LIFE